BEIDOU-3 IGSO-2

Last updated on Sun Apr 12 2026 00:02:55 GMT+0000 (Coordinated Universal Time)

1 44337U 19035A 26100.79795523 -.00000120 00000+0 00000+0 0 9997 2 44337 55.2340 159.4554 0039244 214.1354 231.5650 1.00288265 24995
UTC large
Height (km)
Speed (km/s)
/
Latitude / Longitude
Inclination (degrees)
Orbital Period (minutes)
Azimuth
Elevation
Range (km)
Doppler Factor

Next 0 passes for location: London (51.5072 / 0.1276)

Sorry there are no passes over London.
BEIDOU-3 IGSO-2